Regional Weather Roundup
Issued by NWS

Home | Current Version | Previous Version | Graphics & Text | Print | Product List | Glossary On
Versions: 1 2 3 4 5 6 7 8 9 10 11 12 13 14 15 16 17 18 19 20 21 22 23 24 25 26 27 28
000
ASUS45 KSLC 050110
RWRUT

UTAH REGIONAL WEATHER ROUNDUP
NATIONAL WEATHER SERVICE SALT LAKE CITY UT
700 PM MDT WED MAY 04 2016

UTZ001>011-023>025-050200-

NORTHERN UTAH

CITY           SKY/WX    TMP DP  RH WIND       PRES   REMARKS
BRIGHAM CITY   PTSUNNY   76  26  15 NW5       29.98F
HILL AFB       PTSUNNY   73  37  26 N7        29.99F
LOGAN          PTSUNNY   70  48  45 N9        29.99F
OGDEN          PTSUNNY   76  34  21 N6        29.97F
PROVO AIRPORT  PTSUNNY   77  34  20 W7        29.97F
SALT LAKE CITY PTSUNNY   80  29  15 S8        29.94F
VERNAL         SUNNY     74  27  17 S10       30.06F
WENDOVER       PTSUNNY   75  34  22 E9        29.94F
HEBER CITY     PTSUNNY   70  34  26 SW6       30.03S

$$

UTZ012>022-026-027-050200-

SOUTHERN/CENTRAL UTAH

CITY           SKY/WX    TMP DP  RH WIND       PRES   REMARKS
BLANDING         N/A     72  26  18 SE9       30.19F
BRYCE CANYON   SUNNY     65  24  21 SE16      30.17F
CEDAR CITY     MOSUNNY   73  29  19 SW13      29.98F
DELTA          PTSUNNY   77  32  19 S3        29.95F
HANKSVILLE     SUNNY     81  27  13 S15       30.02F
MILFORD        SUNNY     78  25  14 S13       29.95F
MOAB/CYNLANDS    N/A     80  25  13 SE10      30.00F
PRICE          MOSUNNY   72  26  18 SE12G23   30.09F
ST GEORGE      MOCLDY    86  30  13 W13G24    29.84F

$$

REGIONAL REPORTS     COLORADO/ARIZONA

CITY           SKY/WX    TMP DP  RH WIND       PRES   REMARKS
CRAIG, CO      CLOUDY    70  36  28 W5        30.12F
GRAND JUNCTION SUNNY     75  30  19 NW6       30.05F
RIFLE          SUNNY     74  28  18 W8        30.08F
MONTROSE       MOSUNNY   75  25  15 E5        30.12F
CORTEZ         SUNNY     73  20  13 S6        30.14F
PAGE, AZ       SUNNY     82  23  11 SE9       29.95F
GRAND CANYON   MOSUNNY   71  22  15 S12       30.12F
KINGMAN        PTSUNNY   85  18   8 S21G28    29.87F
FLAGSTAFF      SUNNY     68  19  15 SW18G24   30.16F

$$

REGIONAL REPORTS    NEVADA/IDAHO/WYOMING

CITY           SKY/WX    TMP DP  RH WIND       PRES   REMARKS
LAS VEGAS, NV  PTSUNNY   90  20   7 SE14G21   29.74F
ELY            CLOUDY    67  23  19 S18G24    30.01S
ELKO           PTSUNNY   72  32  23 S8        29.92F
POCATELLO, ID  CLOUDY    72  31  22 S16       30.00F
BURLEY         PTSUNNY   73  34  23 SE9       29.93F
EVANSTON, WY   CLOUDY    65  23  20 SW13      30.13S
ROCK SPRINGS   SUNNY     65  23  20 S16       30.13S
KEMMERER         N/A     64  21  19 SE6       30.14F

$$




USA.gov is the U.S. government's official web portal to all federal, state and local government web resources and services.